Home > Weather > Carrollton > Past weeks

Flag for USA Past Weather in Carrollton, Texas, USA — Yesterday and Last 2 Weeks

Now
80 °F

Partly sunny.


Feels Like: 83 °F
Forecast: 75 / 90 °F
Wind: 14 mph from East

Location: Dallas Love Field

Current Time: Aug 26, 2016 at 8:34:04 PM

Latest Report: Aug 26, 2016 at 7:53 PM


Visibility: 10 mi

Pressure: 29.97 "Hg

Humidity: 69%

Dew Point: 69 °F

Location of CarrolltonLocation

Past Weather in Carrollton — Graph

°F

Carrollton Temperature Yesterday

Maximum temperature yesterday: 94 °F (at 3:53 PM)
Minimum temperature yesterday: 78 °F (at 6:53 AM)
Average temperature yesterday: 86 °F

High & Low Weather Summary for the Past Weeks

 TemperatureHumidityPressure
High105 °F (Aug 12, 2:53 PM)96% (Aug 19, 6:53 PM)30.11 "Hg (Aug 19, 6:53 PM)
Low71 °F (Aug 19, 5:53 PM)30% (Aug 11, 6:53 PM)29.69 "Hg (Aug 12, 3:53 PM)
Average82 °F72%29.97 "Hg
* Reported Aug 11 6:53 PM — Aug 26 6:53 PM, Carrollton, Weather by CustomWeather, © 2016

Note: Actual official high and low records may vary slightly from our data, if they occured in-between our weather recording intervals... More about our weather records

Advertising

Carrollton Weather History for the Previous 24 Hours

Scroll right to see more
 ConditionsComfort  
Time TempWeatherWind HumidityBarometerVisibility
6:53 PM
Fri, Aug 26
82 °FBroken clouds.14 mph65%29.98 "Hg10 mi
5:53 PM85 °FBroken clouds.12 mph59%29.96 "Hg10 mi
4:53 PM82 °FBroken clouds.8 mph72%29.93 "Hg10 mi
3:53 PM87 °FThunderstorms. Broken clouds.5 mph59%29.95 "Hg10 mi
2:53 PM83 °FThunderstorms. Broken clouds.13 mph70%29.96 "Hg10 mi
1:53 PM90 °FBroken clouds.3 mph56%29.98 "Hg10 mi
12:53 PM88 °FBroken clouds.6 mph61%30.01 "Hg10 mi
11:53 AM87 °FBroken clouds.9 mph65%30.03 "Hg10 mi
10:53 AM84 °FSunny.7 mph70%30.05 "Hg10 mi
9:53 AM81 °FBroken clouds.5 mph74%30.05 "Hg10 mi
8:53 AM80 °FPartly sunny.No wind76%30.04 "Hg10 mi
7:53 AM79 °FPassing clouds.6 mph82%30.03 "Hg10 mi
6:53 AM78 °FPassing clouds.7 mph82%30.01 "Hg10 mi
5:53 AM78 °FPassing clouds.6 mph82%30.00 "Hg10 mi
4:53 AM78 °FPassing clouds.5 mph82%29.99 "Hg10 mi
3:53 AM79 °FPassing clouds.10 mph79%30.00 "Hg10 mi
2:53 AM80 °FPassing clouds.14 mph76%30.02 "Hg10 mi
1:53 AM80 °FPassing clouds.15 mph76%30.03 "Hg10 mi
12:53 AM81 °FPassing clouds.15 mph74%30.03 "Hg10 mi
11:53 PM
Thu, Aug 25
83 °FPassing clouds.10 mph68%30.02 "Hg10 mi
10:53 PM85 °FPassing clouds.7 mph63%30.02 "Hg10 mi
9:53 PM86 °FPassing clouds.10 mph63%30.00 "Hg10 mi
8:53 PM88 °FPartly sunny.12 mph57%29.98 "Hg10 mi
Weather by CustomWeather, © 2016

See weather overviewHow to use our weather pages